STARLINK-5363 (55497 NORAD) Tracking and Keplerian Element Data

This shows tracking and keplerian element data for the satellite.

Feedback or suggestion? Click here.




ElementValue
Catalog55497
NameSTARLINK-5363
Epoch Orbit130
Epoch Day84.91667824
Epoch Year2023
RAAN85.9097
Inclination43.0003
Eccentricity0.0001484
Argument of Perigee257.268
Mean Anonmoly6.7869
Mean Motion15.0446471
Decay Rate0.0004851
L11 55497U 23015BA 23084.91667824 .00048510 00000+0 34022-2 0 9991
L22 55497 43.0003 85.9097 0001484 257.2680 6.7869 15.04464710 1309



Live tracking and technical data element details for STARLINK-5363 (NORAD 55497). STARLINK-5363 can be tracked NOW for your location showing map with azimuth and elevation plus other details from your city location.







IsCatalogInMostPopularTable: catalog: 55497, numindb: -1

Insert: records affected: 1


GetName: 55497 STARLINK-5363

Hit Count: inserted at: Tue, 28 Mar 2023 03:06:46 GMT